Regional Weather Roundup
Issued by NWS

Home | Current Version | Previous Version | Graphics & Text | Print | Product List | Glossary On
Versions: 1 2 3 4 5 6 7 8 9 10 11 12 13 14 15 16 17 18 19 20 21 22 23 24 25 26 27 28 29 30 31 32 33 34 35 36 37 38 39 40 41 42 43 44 45 46 47 48 49 50
186
ASUS43 KFSD 221702
RWRSD

WEATHER ROUNDUP FOR SOUTH DAKOTA
NATIONAL WEATHER SERVICE SIOUX FALLS SD
1100 AM CST WED FEB 22 2017

NOTE: "FAIR" INDICATES FEW OR NO CLOUDS BELOW 12,000 FEET WITH NO
SIGNIFICANT WEATHER AND/OR OBSTRUCTIONS TO VISIBILITY.


SDZ001>005-009-010-012>017-221800-
NORTHWEST AND NORTH CENTRAL SOUTH DAKOTA

CITY           SKY/WX    TMP DP  RH WIND       PRES   REMARKS
BUFFALO          N/A     38  35  89 NW20      29.71R
FAITH            N/A     44  37  76 N13       29.74R
MOBRIDGE       PTSUNNY   43  36  76 N10       29.70R
$$

SDZ012>016-024>037-041>051-057-063-072>074-221800-
SOUTHWEST AND SOUTH CENTRAL SOUTH DAKOTA

CITY           SKY/WX    TMP DP  RH WIND       PRES   REMARKS
RAPID CTY ARPT SUNNY     53  24  32 NW28G33   29.75R
PIERRE         SUNNY     48  37  65 NW15      29.72R
CUSTER         SUNNY     40  20  44 NW12G29   29.79R
ELLSWORTH AFB  SUNNY     52  23  32 NW28      29.75R
PHILIP         MOSUNNY   50  36  58 W10       29.75R
PINE RIDGE     MOSUNNY   51  26  37 W20G28    29.82R
SPEARFISH      FAIR      45  23  42 W21       29.80S
WINNER         FAIR      57  38  48 NW24G31   29.72R
$$

SDZ004>011-016>023-039-040-221800-
NORTHEAST SOUTH DAKOTA

CITY           SKY/WX    TMP DP  RH WIND       PRES   REMARKS
ABERDEEN       CLOUDY    40  34  79 N16       29.70R
WATERTOWN      MOSUNNY   52  42  69 NW5       29.59S
BROOKINGS      MOSUNNY   56  42  59 W15       29.59S
SISSETON         N/A     38  38 100 N12       29.62S
$$

SDZ017-020-022-023-036>040-048>070-221800-
SOUTHEAST SOUTH DAKOTA

CITY           SKY/WX    TMP DP  RH WIND       PRES   REMARKS
SIOUX FALLS    MOSUNNY   55  42  61 W9        29.63S
HURON          SUNNY     48  41  76 NW14      29.63S
CHAMBERLAIN    SUNNY     55  40  57 NW20G26   29.69R
MITCHELL       SUNNY     59  38  45 W18G26    29.64S
YANKTON        SUNNY     57  37  47 W13G18    29.65S
$$

ABBREVIATIONS USED IN REMARKS
   TC - TEMPERATURE IN CELSIUS
  WCI - WIND CHILL INDEX
   HX - HEAT INDEX
  VSB - VISIBILITY





USA.gov is the U.S. government's official web portal to all federal, state and local government web resources and services.